EW6420 Weather Reports


Display with metric or nautical units.
time (UTC)temp
F
wind
direction
speed
MPH
gust
MPH
rain 1hr
in
rain 24hr
in
rain mn
in
humidity
%
barometer
mb
20260503024503 69 80 0.0 0.0 0.00 0.00 0.00 56 1012.2
20260503021504 70 80 0.0 0.0 0.00 0.00 0.00 54 1012.2
20260503020005 71 80 0.0 2.0 0.00 0.00 0.00 53 1012.1
20260503014504 71 80 0.0 2.0 0.00 0.00 0.00 52 1012.1
20260503013005 71 78 0.0 2.0 0.00 0.00 0.00 51 1012.1
20260503011505 72 77 0.0 2.0 0.00 0.00 0.00 51 1012.2
20260503010006 72 77 0.0 3.0 0.00 0.00 0.00 50 1012.2
20260503003005 72 148 0.0 3.0 0.00 0.00 0.00 49 1012.4
20260503001506 72 82 0.0 2.0 0.00 0.00 0.00 50 1012.4
20260503000005 72 100 1.0 4.0 0.00 0.00 0.00 52 1012.5
20260502234504 71 153 0.0 2.0 0.00 0.00 0.00 53 1012.6
20260502233005 71 94 1.0 5.0 0.00 0.00 0.00 53 1012.9
20260502231504 71 83 1.0 3.0 0.00 0.00 0.00 54 1013.1
20260502230003 71 118 0.0 2.0 0.00 0.00 0.00 55 1013.3
20260502224503 71 123 1.0 4.0 0.00 0.00 0.00 56 1013.5
20260502223004 71 78 1.0 4.0 0.00 0.00 0.00 57 1013.8
20260502221504 70 130 0.0 4.0 0.00 0.00 0.00 58 1013.9
20260502220007 70 103 0.0 3.0 0.00 0.00 0.00 60 1014.0
20260502214502 69 92 1.0 3.0 0.00 0.00 0.00 60 1014.1
20260502213005 69 70 0.0 2.0 0.00 0.00 0.00 61 1014.3
20260502211504 68 41 0.0 3.0 0.00 0.00 0.00 59 1014.5
20260502204503 67 181 0.0 2.0 0.00 0.00 0.00 61 1014.7
20260502203004 66 92 0.0 3.0 0.00 0.00 0.00 64 1014.7
20260502201504 65 45 0.0 2.0 0.00 0.00 0.00 66 1014.9
20260502200005 64 48 0.0 2.0 0.00 0.00 0.00 67 1015.1
20260502194503 63 87 0.0 3.0 0.00 0.00 0.00 68 1015.3
20260502193003 62 131 0.0 2.0 0.00 0.00 0.00 69 1015.4
20260502191505 61 122 1.0 3.0 0.00 0.00 0.00 70 1015.7
20260502190006 61 76 0.0 3.0 0.00 0.00 0.00 71 1015.8
20260502184503 60 68 0.0 2.0 0.00 0.00 0.00 72 1016.0
20260502163002 53 59 0.0 2.0 0.00 0.00 0.00 83 1016.3
20260502161501 53 144 0.0 2.0 0.00 0.00 0.00 84 1016.4
20260502151503 51 154 0.0 0.0 0.00 0.00 0.00 86 1016.6
20260502123003 51 144 0.0 0.0 0.00 0.00 0.00 85 1016.5
20260502121502 51 144 0.0 2.0 0.00 0.00 0.00 85 1016.2
20260502114502 51 144 0.0 0.0 0.00 0.00 0.00 85 1016.6
20260502113002 51 144 0.0 2.0 0.00 0.00 0.00 84 1016.6
20260502111502 51 91 0.0 0.0 0.00 0.00 0.00 84 1016.6
20260502110005 52 91 0.0 2.0 0.00 0.00 0.00 83 1016.3
20260502104501 52 91 0.0 1.0 0.00 0.00 0.00 83 1016.9
20260502103003 52 91 0.0 2.0 0.00 0.00 0.00 83 1017.1
20260502101503 52 91 0.0 0.0 0.00 0.00 0.00 82 1016.9
20260502091500 53 91 0.0 0.0 0.00 0.00 0.00 79 1016.2
20260502070009 58 91 0.0 2.0 0.00 0.00 0.00 72 1016.1
20260502064504 59 91 0.0 0.0 0.00 0.00 0.00 71 1016.1
20260502063005 59 91 0.0 2.0 0.00 0.00 0.00 69 1016.1
20260502061503 60 91 0.0 2.0 0.00 0.00 0.00 69 1016.1
20260502054503 61 92 0.0 0.0 0.00 0.00 0.00 65 1015.8
20260502053005 61 92 0.0 0.0 0.00 0.00 0.00 63 1015.8
20260502051504 61 92 0.0 0.0 0.00 0.00 0.00 61 1015.7
20260502043005 63 92 0.0 0.0 0.00 0.00 0.00 60 1015.2
20260502041503 63 92 0.0 0.0 0.00 0.00 0.00 57 1015.0
20260502034505 65 92 0.0 0.0 0.00 0.00 0.00 55 1014.7
20260502033004 65 92 0.0 1.0 0.00 0.00 0.00 52 1014.4